Time,TemperatureF,DewpointF,PressureIn,WindDirection,WindDirectionDegrees,WindSpeedMPH,WindSpeedGustMPH,Humidity,HourlyPrecipIn,Conditions,Clouds,dailyrainin,SoftwareType,DateUTC
2013-02-27 00:02:00,35.6,33.8,29.72,ESE,114,11.5,-999.9,93,-99.99,,,-99.99,,2013-02-27 05:02:00,
2013-02-27 00:10:00,35.6,33.8,29.70,East,101,21.9,-999.9,93,-99.99,,,-99.99,,2013-02-27 05:10:00,
2013-02-27 00:16:00,35.6,33.8,29.70,East,101,21.9,-999.9,93,-99.99,,,-99.99,,2013-02-27 05:16:00,
2013-02-27 00:22:00,35.6,33.8,29.70,ESE,119,24.2,-999.9,93,-99.99,,,-99.99,,2013-02-27 05:22:00,
2013-02-27 00:26:00,35.6,33.8,29.70,ESE,119,24.2,-999.9,93,-99.99,,,-99.99,,2013-02-27 05:26:00,
2013-02-27 00:32:00,35.6,33.8,29.68,ESE,121,20.7,-999.9,93,-99.99,,,-99.99,,2013-02-27 05:32:00,
2013-02-27 00:40:00,35.6,33.8,29.69,ESE,106,13.8,-999.9,93,-99.99,,,-99.99,,2013-02-27 05:40:00,
2013-02-27 00:46:00,35.6,33.8,29.69,ESE,106,13.8,-999.9,93,-99.99,,,-99.99,,2013-02-27 05:46:00,
2013-02-27 00:52:00,35.6,33.8,29.70,ESE,105,18.4,-999.9,93,-99.99,,,-99.99,,2013-02-27 05:52:00,
2013-02-27 01:00:00,35.6,33.8,29.71,ESE,112,9.2,-999.9,93,-99.99,,,-99.99,,2013-02-27 06:00:00,
2013-02-27 01:06:00,35.6,33.8,29.71,ESE,112,9.2,-999.9,93,-99.99,,,-99.99,,2013-02-27 06:06:00,
2013-02-27 01:23:00,35.6,33.8,29.69,ESE,104,12.7,-999.9,93,-99.99,,,-99.99,,2013-02-27 06:23:00,
2013-02-27 01:44:00,35.6,33.8,29.67,ESE,115,18.4,-999.9,93,-99.99,,,-99.99,,2013-02-27 06:44:00,
2013-02-27 01:51:00,37.4,35.6,29.65,ESE,121,16.1,-999.9,93,-99.99,,,-99.99,,2013-02-27 06:51:00,
2013-02-27 01:57:00,37.4,35.6,29.65,ESE,121,16.1,-999.9,93,-99.99,,,-99.99,,2013-02-27 06:57:00,
2013-02-27 02:04:00,37.4,35.6,29.65,ESE,105,15.0,-999.9,93,-99.99,,,-99.99,,2013-02-27 07:04:00,
2013-02-27 02:12:00,37.4,35.6,29.64,ESE,119,9.2,-999.9,93,-99.99,,,-99.99,,2013-02-27 07:12:00,
2013-02-27 02:20:00,37.4,35.6,29.64,SE,125,19.6,-999.9,93,-99.99,,,-99.99,,2013-02-27 07:20:00,
2013-02-27 02:26:00,37.4,35.6,29.64,SE,125,19.6,-999.9,93,-99.99,,,-99.99,,2013-02-27 07:26:00,
2013-02-27 02:32:00,37.4,35.6,29.63,East,100,17.3,-999.9,93,-99.99,,,-99.99,,2013-02-27 07:32:00,
2013-02-27 02:40:00,37.4,35.6,29.62,East,100,18.4,-999.9,93,-99.99,,,-99.99,,2013-02-27 07:40:00,
2013-02-27 02:46:00,37.4,35.6,29.62,East,100,18.4,-999.9,93,-99.99,,,-99.99,,2013-02-27 07:46:00,
2013-02-27 02:52:00,37.4,35.6,29.60,East,89,5.8,-999.9,93,-99.99,,,-99.99,,2013-02-27 07:52:00,
2013-02-27 03:00:00,37.4,35.6,29.59,ESE,107,16.1,-999.9,93,-99.99,,,-99.99,,2013-02-27 08:00:00,
2013-02-27 03:06:00,37.4,35.6,29.59,ESE,107,16.1,-999.9,93,-99.99,,,-99.99,,2013-02-27 08:06:00,
2013-02-27 03:12:00,37.4,35.6,29.59,East,99,17.3,-999.9,93,-99.99,,,-99.99,,2013-02-27 08:12:00,
2013-02-27 03:20:00,39.2,37.4,29.57,East,100,9.2,-999.9,93,-99.99,,,-99.99,,2013-02-27 08:20:00,
2013-02-27 03:26:00,39.2,37.4,29.57,East,100,9.2,-999.9,93,-99.99,,,-99.99,,2013-02-27 08:26:00,
2013-02-27 03:31:00,39.2,37.4,29.56,East,100,21.9,-999.9,93,-99.99,,,-99.99,,2013-02-27 08:31:00,
2013-02-27 03:39:00,39.2,37.4,29.56,East,100,21.9,-999.9,93,-99.99,,,-99.99,,2013-02-27 08:39:00,
2013-02-27 03:46:00,39.2,37.4,29.56,East,98,19.6,-999.9,93,-99.99,,,-99.99,,2013-02-27 08:46:00,
2013-02-27 03:52:00,39.2,37.4,29.55,ESE,105,20.7,-999.9,93,-99.99,,,-99.99,,2013-02-27 08:52:00,
2013-02-27 03:59:00,39.2,37.4,29.55,ESE,105,20.7,-999.9,93,-99.99,,,-99.99,,2013-02-27 08:59:00,
2013-02-27 04:06:00,39.2,37.4,29.54,ESE,108,18.4,-999.9,93,-99.99,,,-99.99,,2013-02-27 09:06:00,
2013-02-27 04:12:00,39.2,37.4,29.54,ESE,113,12.7,-999.9,93,-99.99,,,-99.99,,2013-02-27 09:12:00,
2013-02-27 04:20:00,39.2,37.4,29.53,East,100,18.4,-999.9,93,-99.99,,,-99.99,,2013-02-27 09:20:00,
2013-02-27 04:26:00,39.2,37.4,29.53,East,100,18.4,-999.9,93,-99.99,,,-99.99,,2013-02-27 09:26:00,
2013-02-27 04:32:00,39.2,37.4,29.52,East,100,10.4,-999.9,93,-99.99,,,-99.99,,2013-02-27 09:32:00,
2013-02-27 04:40:00,39.2,37.4,29.52,ESE,102,11.5,-999.9,93,-99.99,,,-99.99,,2013-02-27 09:40:00,
2013-02-27 04:45:00,39.2,37.4,29.52,ESE,102,11.5,-999.9,93,-99.99,,,-99.99,,2013-02-27 09:45:00,
2013-02-27 04:52:00,41.0,39.2,29.51,East,100,12.7,-999.9,93,-99.99,,,-99.99,,2013-02-27 09:52:00,
2013-02-27 04:59:00,41.0,39.2,29.51,East,100,12.7,-999.9,93,-99.99,,,-99.99,,2013-02-27 09:59:00,
2013-02-27 05:06:00,41.0,39.2,29.51,East,96,16.1,-999.9,93,-99.99,,,-99.99,,2013-02-27 10:06:00,
2013-02-27 05:12:00,41.0,39.2,29.50,ESE,105,13.8,-999.9,93,-99.99,,,-99.99,,2013-02-27 10:12:00,
2013-02-27 05:20:00,41.0,39.2,29.49,ESE,103,17.3,-999.9,93,-99.99,,,-99.99,,2013-02-27 10:20:00,
2013-02-27 05:26:00,41.0,39.2,29.49,ESE,103,17.3,-999.9,93,-99.99,,,-99.99,,2013-02-27 10:26:00,
2013-02-27 05:32:00,41.0,39.2,29.48,East,101,17.3,-999.9,93,-99.99,,,-99.99,,2013-02-27 10:32:00,
2013-02-27 05:40:00,41.0,39.2,29.48,East,101,17.3,-999.9,93,-99.99,,,-99.99,,2013-02-27 10:40:00,
2013-02-27 05:46:00,41.0,39.2,29.48,ESE,111,19.6,-999.9,93,-99.99,,,-99.99,,2013-02-27 10:46:00,
2013-02-27 05:52:00,42.8,41.0,29.48,ESE,102,17.3,-999.9,93,-99.99,,,-99.99,,2013-02-27 10:52:00,
2013-02-27 06:00:00,42.8,41.0,29.46,East,99,12.7,-999.9,93,-99.99,,,-99.99,,2013-02-27 11:00:00,
2013-02-27 06:12:00,42.8,41.0,29.45,ESE,108,12.7,-999.9,93,-99.99,,,-99.99,,2013-02-27 11:12:00,
2013-02-27 06:20:00,42.8,41.0,29.45,ESE,107,17.3,-999.9,93,-99.99,,,-99.99,,2013-02-27 11:20:00,
2013-02-27 06:26:00,42.8,41.0,29.45,ESE,107,17.3,-999.9,93,-99.99,,,-99.99,,2013-02-27 11:26:00,
2013-02-27 06:32:00,42.8,41.0,29.44,ESE,120,11.5,-999.9,93,-99.99,,,-99.99,,2013-02-27 11:32:00,
2013-02-27 06:40:00,42.8,41.0,29.44,ESE,113,16.1,-999.9,93,-99.99,,,-99.99,,2013-02-27 11:40:00,
2013-02-27 06:46:00,42.8,41.0,29.44,ESE,113,16.1,-999.9,93,-99.99,,,-99.99,,2013-02-27 11:46:00,
2013-02-27 06:52:00,42.8,41.0,29.43,ESE,110,26.5,-999.9,93,-99.99,,,-99.99,,2013-02-27 11:52:00,
2013-02-27 07:00:00,42.8,41.0,29.42,ESE,106,20.7,-999.9,93,-99.99,,,-99.99,,2013-02-27 12:00:00,
2013-02-27 07:06:00,42.8,41.0,29.42,ESE,106,20.7,-999.9,93,-99.99,,,-99.99,,2013-02-27 12:06:00,
2013-02-27 07:12:00,42.8,41.0,29.42,ESE,113,19.6,-999.9,93,-99.99,,,-99.99,,2013-02-27 12:12:00,
2013-02-27 07:20:00,42.8,41.0,29.42,ESE,102,19.6,-999.9,93,-99.99,,,-99.99,,2013-02-27 12:20:00,
2013-02-27 07:42:00,44.6,42.8,29.40,ESE,105,18.4,-999.9,93,-99.99,,,-99.99,,2013-02-27 12:42:00,
2013-02-27 07:50:00,44.6,42.8,29.39,ESE,110,15.0,-999.9,93,-99.99,,,-99.99,,2013-02-27 12:50:00,
2013-02-27 08:02:00,44.6,42.8,29.38,ESE,110,21.9,-999.9,93,-99.99,,,-99.99,,2013-02-27 13:02:00,
2013-02-27 08:12:00,44.6,42.8,29.38,ESE,113,27.6,-999.9,93,-99.99,,,-99.99,,2013-02-27 13:12:00,
2013-02-27 08:20:00,44.6,42.8,29.37,ESE,107,18.4,-999.9,93,-99.99,,,-99.99,,2013-02-27 13:20:00,
2013-02-27 08:26:00,44.6,42.8,29.37,ESE,107,18.4,-999.9,93,-99.99,,,-99.99,,2013-02-27 13:26:00,
2013-02-27 08:32:00,44.6,42.8,29.36,SE,126,15.0,-999.9,93,-99.99,,,-99.99,,2013-02-27 13:32:00,
2013-02-27 08:40:00,44.6,42.8,29.36,ESE,108,29.9,-999.9,93,-99.99,,,-99.99,,2013-02-27 13:40:00,
2013-02-27 08:46:00,44.6,42.8,29.36,ESE,108,29.9,-999.9,93,-99.99,,,-99.99,,2013-02-27 13:46:00,
2013-02-27 08:52:00,44.6,42.8,29.35,ESE,113,20.7,-999.9,93,-99.99,,,-99.99,,2013-02-27 13:52:00,
2013-02-27 09:02:00,44.6,42.8,29.35,ESE,119,25.3,-999.9,93,-99.99,,,-99.99,,2013-02-27 14:02:00,
2013-02-27 09:10:00,44.6,42.8,29.35,ESE,102,27.6,-999.9,93,-99.99,,,-99.99,,2013-02-27 14:10:00,
2013-02-27 09:16:00,44.6,42.8,29.35,ESE,102,27.6,-999.9,93,-99.99,,,-99.99,,2013-02-27 14:16:00,
2013-02-27 09:22:00,44.6,42.8,29.35,SE,135,12.7,-999.9,93,-99.99,,,-99.99,,2013-02-27 14:22:00,
2013-02-27 09:30:00,44.6,42.8,29.35,SE,135,12.7,-999.9,93,-99.99,,,-99.99,,2013-02-27 14:30:00,
2013-02-27 09:35:00,44.6,42.8,29.36,ESE,110,16.1,-999.9,93,-99.99,,,-99.99,,2013-02-27 14:35:00,
2013-02-27 09:42:00,44.6,42.8,29.36,ESE,121,24.2,-999.9,93,-99.99,,,-99.99,,2013-02-27 14:42:00,
2013-02-27 09:50:00,44.6,42.8,29.36,ESE,121,24.2,-999.9,93,-99.99,,,-99.99,,2013-02-27 14:50:00,
2013-02-27 09:56:00,44.6,42.8,29.34,ESE,116,21.9,-999.9,93,-99.99,,,-99.99,,2013-02-27 14:56:00,
2013-02-27 10:22:00,44.6,42.8,29.35,ESE,113,24.2,-999.9,93,-99.99,,,-99.99,,2013-02-27 15:22:00,
2013-02-27 10:30:00,44.6,42.8,29.35,ESE,108,21.9,-999.9,93,-99.99,,,-99.99,,2013-02-27 15:30:00,
2013-02-27 10:36:00,44.6,42.8,29.35,ESE,108,21.9,-999.9,93,-99.99,,,-99.99,,2013-02-27 15:36:00,
2013-02-27 10:42:00,44.6,42.8,29.34,ESE,104,19.6,-999.9,93,-99.99,,,-99.99,,2013-02-27 15:42:00,
2013-02-27 10:50:00,44.6,42.8,29.32,ESE,105,26.5,-999.9,93,-99.99,,,-99.99,,2013-02-27 15:50:00,
2013-02-27 10:56:00,44.6,42.8,29.32,ESE,105,26.5,-999.9,93,-99.99,,,-99.99,,2013-02-27 15:56:00,
2013-02-27 11:02:00,44.6,42.8,29.32,SE,128,24.2,-999.9,93,-99.99,,,-99.99,,2013-02-27 16:02:00,
2013-02-27 11:10:00,44.6,42.8,29.32,ESE,116,24.2,-999.9,93,-99.99,,,-99.99,,2013-02-27 16:10:00,
2013-02-27 11:16:00,44.6,42.8,29.32,ESE,116,24.2,-999.9,93,-99.99,,,-99.99,,2013-02-27 16:16:00,
2013-02-27 11:22:00,44.6,42.8,29.32,ESE,121,25.3,-999.9,93,-99.99,,,-99.99,,2013-02-27 16:22:00,
2013-02-27 11:30:00,44.6,42.8,29.32,ESE,120,23.0,-999.9,93,-99.99,,,-99.99,,2013-02-27 16:30:00,
2013-02-27 11:36:00,44.6,42.8,29.32,ESE,120,23.0,-999.9,93,-99.99,,,-99.99,,2013-02-27 16:36:00,
2013-02-27 11:42:00,44.6,42.8,29.32,ESE,103,16.1,-999.9,93,-99.99,,,-99.99,,2013-02-27 16:42:00,
2013-02-27 11:50:00,44.6,42.8,29.32,ESE,103,16.1,-999.9,93,-99.99,,,-99.99,,2013-02-27 16:50:00,
2013-02-27 11:56:00,44.6,42.8,29.32,ESE,105,23.0,-999.9,93,-99.99,,,-99.99,,2013-02-27 16:56:00,
2013-02-27 12:02:00,44.6,42.8,29.30,ESE,112,17.3,-999.9,93,-99.99,,,-99.99,,2013-02-27 17:02:00,
2013-02-27 12:10:00,44.6,42.8,29.30,ESE,111,16.1,-999.9,93,-99.99,,,-99.99,,2013-02-27 17:10:00,
2013-02-27 12:16:00,44.6,42.8,29.30,ESE,111,16.1,-999.9,93,-99.99,,,-99.99,,2013-02-27 17:16:00,
2013-02-27 12:22:00,44.6,42.8,29.29,ESE,106,10.4,-999.9,93,-99.99,,,-99.99,,2013-02-27 17:22:00,
2013-02-27 12:30:00,44.6,42.8,29.28,ESE,108,15.0,-999.9,93,-99.99,,,-99.99,,2013-02-27 17:30:00,
2013-02-27 12:36:00,44.6,42.8,29.28,ESE,108,15.0,-999.9,93,-99.99,,,-99.99,,2013-02-27 17:36:00,
2013-02-27 12:42:00,44.6,42.8,29.28,SE,124,10.4,-999.9,93,-99.99,,,-99.99,,2013-02-27 17:42:00,
2013-02-27 12:49:00,44.6,42.8,29.28,SE,124,10.4,-999.9,93,-99.99,,,-99.99,,2013-02-27 17:49:00,
2013-02-27 12:56:00,44.6,42.8,29.28,SE,126,17.3,-999.9,93,-99.99,,,-99.99,,2013-02-27 17:56:00,
2013-02-27 13:02:00,42.8,41.0,29.27,ESE,112,13.8,-999.9,93,-99.99,,,-99.99,,2013-02-27 18:02:00,
2013-02-27 13:10:00,42.8,41.0,29.26,ESE,118,11.5,-999.9,93,-99.99,,,-99.99,,2013-02-27 18:10:00,
2013-02-27 13:15:00,42.8,41.0,29.26,ESE,118,11.5,-999.9,93,-99.99,,,-99.99,,2013-02-27 18:15:00,
2013-02-27 13:20:00,42.8,41.0,29.28,ESE,119,16.1,-999.9,93,-99.99,,,-99.99,,2013-02-27 18:20:00,
2013-02-27 13:30:00,42.8,42.8,29.28,ESE,122,12.7,-999.9,100,-99.99,,,-99.99,,2013-02-27 18:30:00,
2013-02-27 13:36:00,42.8,42.8,29.28,ESE,122,12.7,-999.9,100,-99.99,,,-99.99,,2013-02-27 18:36:00,
2013-02-27 13:41:00,42.8,42.8,29.28,ESE,110,15.0,-999.9,100,-99.99,,,-99.99,,2013-02-27 18:41:00,
2013-02-27 13:50:00,44.6,44.6,29.28,East,98,8.1,-999.9,100,-99.99,,,-99.99,,2013-02-27 18:50:00,
2013-02-27 13:55:00,44.6,44.6,29.28,East,98,8.1,-999.9,100,-99.99,,,-99.99,,2013-02-27 18:55:00,
2013-02-27 14:01:00,44.6,44.6,29.28,ESE,109,10.4,-999.9,100,-99.99,,,-99.99,,2013-02-27 19:01:00,
2013-02-27 14:10:00,44.6,44.6,29.28,ESE,111,9.2,-999.9,100,-99.99,,,-99.99,,2013-02-27 19:10:00,
2013-02-27 14:16:00,44.6,44.6,29.28,ESE,111,9.2,-999.9,100,-99.99,,,-99.99,,2013-02-27 19:16:00,
2013-02-27 14:22:00,44.6,44.6,29.28,ENE,77,2.3,-999.9,100,-99.99,,,-99.99,,2013-02-27 19:22:00,
2013-02-27 14:30:00,44.6,44.6,29.28,ENE,77,2.3,-999.9,100,-99.99,,,-99.99,,2013-02-27 19:30:00,
2013-02-27 14:36:00,42.8,42.8,29.29,ESE,120,10.4,-999.9,100,-99.99,,,-99.99,,2013-02-27 19:36:00,
2013-02-27 14:41:00,44.6,44.6,29.29,SE,125,4.6,-999.9,100,-99.99,,,-99.99,,2013-02-27 19:41:00,
2013-02-27 14:50:00,44.6,44.6,29.30,SSE,166,0.0,-999.9,100,-99.99,,,-99.99,,2013-02-27 19:50:00,
2013-02-27 14:56:00,44.6,44.6,29.30,SSE,166,0.0,-999.9,100,-99.99,,,-99.99,,2013-02-27 19:56:00,
2013-02-27 15:01:00,44.6,44.6,29.30,SE,140,4.6,-999.9,100,-99.99,,,-99.99,,2013-02-27 20:01:00,
2013-02-27 15:09:00,44.6,44.6,29.30,SE,140,4.6,-999.9,100,-99.99,,,-99.99,,2013-02-27 20:09:00,
2013-02-27 15:16:00,44.6,44.6,29.30,SSE,155,2.3,-999.9,100,-99.99,,,-99.99,,2013-02-27 20:16:00,
2013-02-27 15:22:00,44.6,44.6,29.29,ENE,76,1.2,-999.9,100,-99.99,,,-99.99,,2013-02-27 20:22:00,
2013-02-27 15:30:00,44.6,44.6,29.29,ESE,117,3.5,-999.9,100,-99.99,,,-99.99,,2013-02-27 20:30:00,
2013-02-27 15:36:00,44.6,44.6,29.29,ESE,117,3.5,-999.9,100,-99.99,,,-99.99,,2013-02-27 20:36:00,
2013-02-27 15:42:00,44.6,44.6,29.30,South,172,2.3,-999.9,100,-99.99,,,-99.99,,2013-02-27 20:42:00,
2013-02-27 15:50:00,44.6,44.6,29.31,SSE,155,3.5,-999.9,100,-99.99,,,-99.99,,2013-02-27 20:50:00,
2013-02-27 15:56:00,44.6,44.6,29.31,SSE,155,3.5,-999.9,100,-99.99,,,-99.99,,2013-02-27 20:56:00,
2013-02-27 16:02:00,46.4,46.4,29.31,NNE,31,0.0,-999.9,100,-99.99,,,-99.99,,2013-02-27 21:02:00,
2013-02-27 16:09:00,46.4,46.4,29.31,NNE,31,0.0,-999.9,100,-99.99,,,-99.99,,2013-02-27 21:09:00,
2013-02-27 16:15:00,46.4,44.6,29.31,North,0,0.0,-999.9,93,-99.99,,,-99.99,,2013-02-27 21:15:00,
2013-02-27 16:20:00,46.4,44.6,29.32,North,0,0.0,-999.9,93,-99.99,,,-99.99,,2013-02-27 21:20:00,
2013-02-27 16:26:00,46.4,44.6,29.32,North,0,0.0,-999.9,93,-99.99,,,-99.99,,2013-02-27 21:26:00,
2013-02-27 16:32:00,46.4,44.6,29.32,WNW,284,0.0,-999.9,93,-99.99,,,-99.99,,2013-02-27 21:32:00,
2013-02-27 16:40:00,46.4,44.6,29.32,SSW,194,2.3,-999.9,93,-99.99,,,-99.99,,2013-02-27 21:40:00,
2013-02-27 16:45:00,46.4,44.6,29.32,SSW,194,2.3,-999.9,93,-99.99,,,-99.99,,2013-02-27 21:45:00,
2013-02-27 16:52:00,46.4,44.6,29.33,North,0,0.0,-999.9,93,-99.99,,,-99.99,,2013-02-27 21:52:00,
2013-02-27 17:00:00,46.4,44.6,29.33,North,0,0.0,-999.9,93,-99.99,,,-99.99,,2013-02-27 22:00:00,
2013-02-27 17:10:00,46.4,44.6,29.33,North,4,0.0,-999.9,93,-99.99,,,-99.99,,2013-02-27 22:10:00,
2013-02-27 17:16:00,46.4,44.6,29.33,North,4,0.0,-999.9,93,-99.99,,,-99.99,,2013-02-27 22:16:00,
2013-02-27 17:22:00,46.4,44.6,29.33,West,274,0.0,-999.9,93,-99.99,,,-99.99,,2013-02-27 22:22:00,
2013-02-27 17:30:00,46.4,44.6,29.34,WNW,284,1.2,-999.9,93,-99.99,,,-99.99,,2013-02-27 22:30:00,
2013-02-27 17:36:00,46.4,44.6,29.34,WNW,284,1.2,-999.9,93,-99.99,,,-99.99,,2013-02-27 22:36:00,
2013-02-27 17:41:00,46.4,44.6,29.34,North,0,0.0,-999.9,93,-99.99,,,-99.99,,2013-02-27 22:41:00,
2013-02-27 17:49:00,46.4,44.6,29.34,North,0,0.0,-999.9,93,-99.99,,,-99.99,,2013-02-27 22:49:00,
2013-02-27 17:55:00,46.4,44.6,29.35,North,0,0.0,-999.9,93,-99.99,,,-99.99,,2013-02-27 22:55:00,
2013-02-27 18:01:00,46.4,42.8,29.36,North,0,0.0,-999.9,87,-99.99,,,-99.99,,2013-02-27 23:01:00,
2013-02-27 18:09:00,46.4,42.8,29.36,North,0,0.0,-999.9,87,-99.99,,,-99.99,,2013-02-27 23:09:00,
2013-02-27 18:15:00,46.4,42.8,29.36,West,271,1.2,-999.9,87,-99.99,,,-99.99,,2013-02-27 23:15:00,
2013-02-27 18:21:00,46.4,42.8,29.36,West,277,5.8,-999.9,87,-99.99,,,-99.99,,2013-02-27 23:21:00,
2013-02-27 18:29:00,46.4,42.8,29.36,West,277,5.8,-999.9,87,-99.99,,,-99.99,,2013-02-27 23:29:00,
2013-02-27 18:36:00,46.4,41.0,29.37,WNW,285,1.2,-999.9,81,-99.99,,,-99.99,,2013-02-27 23:36:00,
2013-02-27 18:42:00,46.4,39.2,29.37,WNW,286,6.9,-999.9,76,-99.99,,,-99.99,,2013-02-27 23:42:00,
2013-02-27 18:51:00,44.6,37.4,29.38,NW,309,6.9,-999.9,76,-99.99,,,-99.99,,2013-02-27 23:51:00,
2013-02-27 18:59:00,44.6,37.4,29.38,NW,309,6.9,-999.9,76,-99.99,,,-99.99,,2013-02-27 23:59:00,
2013-02-27 19:05:00,44.6,37.4,29.39,WNW,295,4.6,-999.9,76,-99.99,,,-99.99,,2013-02-28 00:05:00,
2013-02-27 19:12:00,44.6,37.4,29.39,WNW,290,8.1,-999.9,76,-99.99,,,-99.99,,2013-02-28 00:12:00,
2013-02-27 20:12:00,42.8,35.6,29.41,WNW,290,0.0,-999.9,76,-99.99,,,-99.99,,2013-02-28 01:12:00,
2013-02-27 20:20:00,42.8,35.6,29.41,NNW,339,1.2,-999.9,76,-99.99,,,-99.99,,2013-02-28 01:20:00,
2013-02-27 20:26:00,42.8,35.6,29.41,NNW,339,1.2,-999.9,76,-99.99,,,-99.99,,2013-02-28 01:26:00,
2013-02-27 20:32:00,42.8,35.6,29.42,WNW,302,2.3,-999.9,76,-99.99,,,-99.99,,2013-02-28 01:32:00,
2013-02-27 20:40:00,42.8,35.6,29.42,WNW,294,2.3,-999.9,76,-99.99,,,-99.99,,2013-02-28 01:40:00,
2013-02-27 20:46:00,42.8,35.6,29.42,WNW,294,2.3,-999.9,76,-99.99,,,-99.99,,2013-02-28 01:46:00,
2013-02-27 20:52:00,42.8,35.6,29.42,NW,305,5.8,-999.9,76,-99.99,,,-99.99,,2013-02-28 01:52:00,
2013-02-27 21:00:00,42.8,35.6,29.43,WSW,250,2.3,-999.9,76,-99.99,,,-99.99,,2013-02-28 02:00:00,
2013-02-27 21:12:00,42.8,33.8,29.43,WNW,284,3.5,-999.9,70,-99.99,,,-99.99,,2013-02-28 02:12:00,
2013-02-27 21:20:00,42.8,33.8,29.43,WNW,284,3.5,-999.9,70,-99.99,,,-99.99,,2013-02-28 02:20:00,
2013-02-27 21:26:00,42.8,33.8,29.43,WNW,302,3.5,-999.9,70,-99.99,,,-99.99,,2013-02-28 02:26:00,
2013-02-27 21:32:00,42.8,33.8,29.43,NW,317,3.5,-999.9,70,-99.99,,,-99.99,,2013-02-28 02:32:00,
2013-02-27 21:40:00,42.8,33.8,29.43,NW,306,1.2,-999.9,70,-99.99,,,-99.99,,2013-02-28 02:40:00,
2013-02-27 21:46:00,42.8,33.8,29.43,NW,306,1.2,-999.9,70,-99.99,,,-99.99,,2013-02-28 02:46:00,
2013-02-27 21:52:00,44.6,35.6,29.43,West,269,1.2,-999.9,71,-99.99,,,-99.99,,2013-02-28 02:52:00,
2013-02-27 22:00:00,42.8,33.8,29.43,West,271,2.3,-999.9,70,-99.99,,,-99.99,,2013-02-28 03:00:00,
2013-02-27 22:06:00,42.8,33.8,29.43,West,271,2.3,-999.9,70,-99.99,,,-99.99,,2013-02-28 03:06:00,
2013-02-27 22:12:00,42.8,33.8,29.43,WNW,291,4.6,-999.9,70,-99.99,,,-99.99,,2013-02-28 03:12:00,
2013-02-27 22:20:00,42.8,33.8,29.43,WNW,301,4.6,-999.9,70,-99.99,,,-99.99,,2013-02-28 03:20:00,
2013-02-27 22:26:00,42.8,33.8,29.43,WNW,301,4.6,-999.9,70,-99.99,,,-99.99,,2013-02-28 03:26:00,
2013-02-27 22:32:00,42.8,33.8,29.42,NNW,329,13.8,-999.9,70,-99.99,,,-99.99,,2013-02-28 03:32:00,
2013-02-27 22:40:00,44.6,35.6,29.43,NW,312,3.5,-999.9,71,-99.99,,,-99.99,,2013-02-28 03:40:00,
2013-02-27 22:46:00,44.6,35.6,29.43,NW,312,3.5,-999.9,71,-99.99,,,-99.99,,2013-02-28 03:46:00,
2013-02-27 22:52:00,44.6,35.6,29.42,NW,326,3.5,-999.9,71,-99.99,,,-99.99,,2013-02-28 03:52:00,
2013-02-27 23:00:00,44.6,35.6,29.42,NNW,341,2.3,-999.9,71,-99.99,,,-99.99,,2013-02-28 04:00:00,
2013-02-27 23:06:00,44.6,35.6,29.42,NNW,341,2.3,-999.9,71,-99.99,,,-99.99,,2013-02-28 04:06:00,
2013-02-27 23:12:00,42.8,33.8,29.41,NW,325,10.4,-999.9,70,-99.99,,,-99.99,,2013-02-28 04:12:00,
2013-02-27 23:20:00,44.6,35.6,29.41,NW,317,2.3,-999.9,71,-99.99,,,-99.99,,2013-02-28 04:20:00,
2013-02-27 23:26:00,44.6,35.6,29.41,NW,317,2.3,-999.9,71,-99.99,,,-99.99,,2013-02-28 04:26:00,
2013-02-27 23:32:00,42.8,33.8,29.41,NW,321,4.6,-999.9,70,-99.99,,,-99.99,,2013-02-28 04:32:00,
2013-02-27 23:40:00,42.8,35.6,29.39,NNW,341,4.6,-999.9,76,-99.99,,,-99.99,,2013-02-28 04:40:00,
2013-02-27 23:46:00,42.8,35.6,29.39,NNW,341,4.6,-999.9,76,-99.99,,,-99.99,,2013-02-28 04:46:00,
2013-02-27 23:52:00,44.6,35.6,29.40,North,0,0.0,-999.9,71,-99.99,,,-99.99,,2013-02-28 04:52:00,